Regional Weather Roundup
Issued by NWS

Home | Current Version | Previous Version | Text Only | Print | Product List | Glossary Off
Versions: 1 2 3 4 5 6 7 8 9 10 11 12 13 14 15 16 17 18 19 20 21 22 23 24 25 26 27 28 29 30 31 32 33 34 35 36 37 38 39 40 41 42 43 44 45 46 47 48 49 50

000
ASUS43 KLSX 300957
RWRMO

WEATHER SUMMARY FOR MISSOURI
NATIONAL WEATHER SERVICE SPRINGFIELD MO
500 AM CDT SUN AUG 30 2015

NOTE: "FAIR" INDICATES FEW OR NO CLOUDS BELOW 12,000 FEET WITH NO
       SIGNIFICANT WEATHER AND/OR OBSTRUCTIONS TO VISIBILITY.
       CURRENT SKY AND/OR WEATHER CONDITIONS ARE NOT AVAILABLE FOR
       CHILLICOTHE AND FARMINGTON.

MOZ001>031-035>038-043-044-053-054-301100-
...NORTHERN AND WESTERN MISSOURI...

CITY           SKY/WX    TMP DP  RH WIND       PRES   REMARKS
KANSAS CTY INT MOCLDY    65  60  84 E3        30.02S
LEE`S SUMMIT   CLOUDY    68  66  93 NE6       30.02S
ST JOSEPH      PTCLDY    60  60 100 CALM      30.02S FOG
CHILLICOTHE      N/A     69  67  93 NE3       30.03S

$$
MOZ066>068-077>081-088>096-101>105-301100-
...SOUTHWEST MISSOURI...

CITY           SKY/WX    TMP DP  RH WIND       PRES   REMARKS
SPRINGFIELD    PTCLDY    69  65  86 S10       29.99S
JOPLIN         FOG       68  68 100 CALM      29.98S VSB 1/4

$$
MOZ032>034-039>042-045>050-055>058-069>072-301100-
...CENTRAL MISSOURI...

CITY           SKY/WX    TMP DP  RH WIND       PRES   REMARKS
COLUMBIA       MOCLDY    67  67 100 SE3       30.01S FOG
JEFFERSON CITY CLEAR     68  66  93 CALM      30.00R FOG
ROLLA          MOCLDY    66  64  93 SE8       30.00F
SEDALIA        CLOUDY    69  67  93 N3        30.01S FOG

$$
MOZ051-052-059>065-301100-
...EAST CENTRAL MISSOURI...

CITY           SKY/WX    TMP DP  RH WIND       PRES   REMARKS
ST LOUIS INTL  MOCLDY    73  65  75 CALM      30.01S

$$
MOZ072>076-082>087-097>100-106>115-301100-
...SOUTH CENTRAL AND SOUTHEAST MISSOURI...

CITY           SKY/WX    TMP DP  RH WIND       PRES   REMARKS
CAPE GIRARDEAU CLOUDY    71  67  87 CALM      30.02R
POPLAR BLUFF   PTCLDY    68  65  90 CALM      29.99F
WEST PLAINS    CLOUDY    69  65  86 SE3       30.03F

$$



USA.gov is the U.S. government's official web portal to all federal, state and local government web resources and services.